Location: Unspecified
(0.0000°N, 0.0000°E)
Time: 00:55:21
(UTC+00:00)

USA 72 - Visible Passes

Search period start: 11 October 2024 00:00
Search period end: 21 October 2024 00:00
Orbit: 2599 x 11647 km, 63.3° (Epoch: 02 October)

Date Brightness Start Highest point End Pass type
(mag) Time Alt. Az. Time Alt. Az. Time Alt. Az.
11 Oct 9.2 17:29:02 10° NNW 18:23:12 64° WSW 18:43:35 10° S visible
12 Oct 9.1 03:56:01 10° S 04:14:58 55° ESE 05:02:48 10° NNE visible
12 Oct 9.8 20:08:45 10° WNW 20:26:37 15° W 20:38:40 10° SW visible
13 Oct 9.2 17:10:13 10° NNW 18:05:20 67° WSW 18:25:50 10° S visible
14 Oct 9.2 03:38:20 10° S 03:57:10 52° ESE 04:43:51 10° NNE visible
14 Oct 9.8 19:47:23 10° WNW 20:08:49 17° W 20:22:21 10° SW visible
15 Oct 9.2 16:51:28 10° NNW 17:47:28 70° WSW 18:08:04 10° S visible
16 Oct 9.2 03:20:41 10° S 03:39:23 49° ESE 04:24:51 10° NNE visible
16 Oct 9.8 19:26:27 10° WNW 19:51:00 19° W 20:05:43 10° SW visible
18 Oct 9.2 03:03:04 10° S 03:21:36 47° ESE 04:05:47 10° NE visible
18 Oct 9.7 19:05:51 10° NW 19:33:14 21° W 19:48:51 10° SSW visible
19 Oct 8.8 05:07:07 10° SSW 05:27:56 71° WNW 06:26:28 10° NNE visible
20 Oct 9.2 02:45:27 10° S 03:03:49 44° ESE 03:46:40 10° NE visible
20 Oct 9.7 18:45:29 10° NW 19:15:27 23° W 19:31:50 10° SSW visible
